Regional Weather Roundup
Issued by NWS

Home | Current Version | Previous Version | Graphics & Text | Print | Product List | Glossary On
Versions: 1 2 3 4 5 6 7 8 9 10 11 12 13 14 15 16 17 18 19 20 21 22 23 24 25 26 27 28 29 30 31 32 33 34 35 36 37 38 39 40 41 42 43 44 45 46 47 48 49 50
000
ASUS45 KSLC 010410
RWRUT

UTAH REGIONAL WEATHER ROUNDUP
NATIONAL WEATHER SERVICE SALT LAKE CITY UT
1000 PM MDT TUE JUN 30 2015

UTZ001>011-023>025-010500-

NORTHERN UTAH

CITY           SKY/WX    TMP DP  RH WIND       PRES   REMARKS
BRIGHAM CITY   CLOUDY    86  47  26 NW3       30.06R
HILL AFB       NOT AVBL
LOGAN          CLEAR     85  52  32 S8        30.05R
OGDEN          CLOUDY    86  49  27 NW12      30.05R
PROVO AIRPORT  CLOUDY    88  46  23 SE14      30.05R
SALT LAKE CITY CLOUDY    88  57  34 NW23G36   30.02R
VERNAL         MOCLDY    72  52  49 NW3       30.11R
WENDOVER       CLOUDY    86  48  26 NE9       30.06S
HEBER CITY     CLOUDY    75  50  41 S3        30.13R
WEST JORDAN    PTCLDY    84  55  37 NW25G38   30.08R

$$

UTZ012>022-026-027-010500-

SOUTHERN/CENTRAL UTAH

CITY           SKY/WX    TMP DP  RH WIND       PRES   REMARKS
BLANDING       MOCLDY    78  48  34 NE12      30.17R
BRYCE CANYON   MOCLDY    64  50  60 W3        30.31S
CEDAR CITY     MOCLDY    79  46  31 SE7       30.12R
DELTA          MOCLDY    83  48  30 N23G32    30.10R
HANKSVILLE     CLOUDY    88  43  20 N13       29.99S
MILFORD        CLOUDY    84  45  25 NE6       30.07R
MOAB/CYNLANDS  CLEAR     90  43  19 E9        29.97S
PRICE          CLOUDY    80  45  28 SW8       30.15S
ST GEORGE      CLOUDY   100  45  15 NW6       29.86R HX  96
KANAB          PTCLDY    82  46  28 N6        30.10R

$$

REGIONAL REPORTS     COLORADO/ARIZONA

CITY           SKY/WX    TMP DP  RH WIND       PRES   REMARKS
CRAIG, CO      CLOUDY    72  47  40 E3        30.19S
GRAND JUNCTION CLOUDY    80  44  27 NE3       30.04S
RIFLE          CLOUDY    80  42  25 SE5       30.11R
MONTROSE       CLOUDY    81  45  28 S5        30.14R
CORTEZ         CLEAR     79  48  33 N5        30.10R
PAGE, AZ       PTCLDY    95  44  17 N8        29.96R HX  91
GRAND CANYON   CLOUDY    66  59  78 NE3       30.21R
KINGMAN        CLOUDY    91  55  29 SW13      29.94R
FLAGSTAFF      MOCLDY    69  56  62 W5        30.26R

$$

REGIONAL REPORTS    NEVADA/IDAHO/WYOMING

CITY           SKY/WX    TMP DP  RH WIND       PRES   REMARKS
LAS VEGAS, NV  CLOUDY   107  45  12 SW7       29.72S HX 102
ELY            CLOUDY    70  51  51 N15       30.25S
ELKO           CLOUDY    79  50  36 E8        30.13R
POCATELLO, ID  CLEAR     79  54  41 S7        30.04R
BURLEY         CLOUDY    82  55  39 SW16      30.01R
EVANSTON, WY   PTCLDY    75  46  35 N6        30.27R
ROCK SPRINGS   MOCLDY    68  52  56 N9        30.24
KEMMERER       PTCLDY   N/A N/A N/A N7        30.30R

$$



USA.gov is the U.S. government's official web portal to all federal, state and local government web resources and services.